Simultaneous Nadir Overpasses (SNOs) Predictions

Prediction of SNOs between GOES-15 and METOP-A Satellite Orbit:

Table of predicted SNOs for the next 14.0 days since TLE Epoch: 7/26/2019
Index Date Time (GOES-15) GOES-15 Lat,Lon METOP-A Lat,Lon Distance(km) Time Diff (sec)
1 07/27/2019 05:53:07 0.07,-128.14 -0.82,-132.12 453.68 80
2 07/28/2019 05:29:48 0.09,-128.16 0.32,-127.14 115.69 80
3 07/29/2019 17:51:19 -0.06,-128.21 0.74,-131.72 400.56 80
4 07/30/2019 17:28:01 -0.08,-128.23 -0.40,-126.75 168.59 80
5 08/01/2019 05:49:42 0.05,-128.24 -0.62,-131.37 356.49 80
6 08/02/2019 05:26:24 0.08,-128.25 0.52,-126.40 212.03 80
7 08/03/2019 17:47:55 -0.05,-128.29 0.54,-130.97 305.36 80
8 08/04/2019 17:24:37 -0.07,-128.31 -0.61,-126.00 263.36 80
9 08/06/2019 05:46:17 0.04,-128.31 -0.48,-130.61 261.82 80
10 08/07/2019 05:22:58 0.06,-128.33 0.67,-125.64 306.42 80
11 08/08/2019 17:44:30 -0.02,-128.36 0.39,-130.21 211.70 80
12 08/09/2019 17:21:11 -0.05,-128.37 -0.75,-125.24 356.55 80




NCC Satellite Simultaneous Nadir Overpasses (SNOs) Prediction Service
